Showing default

COSMOS 2095, 20740

Orbit data source: Space-Track

COSMOS 2095, 20740 is a payload satellite owned by UNKS (CIS) in LEO that was launched on Wed, 08 Aug 1990 UTC via a TSIKLON-3 launch vehicle from the Plesetsk Missile And Space Complex (PKMTR). Payload-class satellites include a variety of spacecraft equipped with specific instruments for various scientific and technological missions. These include communications satellites like Starlink; space stations such as the ISS; scientific satellites like the Hubble; Earth observation satellites from companies like Planet Labs, Umbra, and HawkEye 360; GPS; miniature CubeSats for education and research; and military/defense satellites.

Loading next visibility...
Identifier
20740, 1990-070F
Orbit
LEO
Country
Flag of CISCIS
Related business
Manufacturer
NPO PM
Mission
Defense Communications
Bus & Motor
STRELA-3, Unknown motor
Mass
225 kg wet, 225 kg dry
Launch date (UTC)
1990-08-08 (36 years ago)
Launch vehicle
TSIKLON-3
Launch site
Plesetsk Missile And Space Complex (PKMTR)
Object type
Payload
Rocket body
Debris
Shape & HBR
Cyl, 0.8 m
Radar Cross Section
1.257 m², Large (>1 m²)

Expand to show TLE details & history
Last TLE update: 13 hours ago

TLE from 13 hours ago
0 COSMOS 2095
1 20740U 90070F   26063.27226388  .00000027  00000-0  89747-4 0  9992
2 20740  82.5783 334.9962 0018346 255.7696 222.7342 12.66138376643756
Epoch: 2026-03-04T06:32Z
TLE epoch observation values (Epoch: 2026-03-04T06:32:03.599Z)
Latitude
60.84906°
Longitude
-118.4962°
Altitude
1,418.545 km
Speed
7.152 km/s
True Right ascension
09h 26m 13s
True Declination
60° 42' 54"
Sunlit
Object was in daylight at epoch
Visualization orbit readout
Latitude
Unknown
Longitude
Unknown
Altitude
Unknown
Speed
Unknown
Apparent Right ascension
Unknown
Apparent Declination
Unknown
Sunlit
N/A
Visualization observer readout
Local Sidereal Time
22:53:51
Azimuth
Unknown
Elevation
Unknown
Doppler factor
Unknown
Orbital elements
Apogee altitude
1,409.286 km
Perigee altitude
1,380.765 km
Semi-major axis
7,773.163 km
Eccentricity
0.00183
Inclination
82.5783°
RAAN
334.9962°
Arg. of periapsis
255.7696°
True anomaly
222.59178°
Mean anomaly
222.7342°
Eccentric anomaly
222.66297°
Mean motion
3.16699 °/min
Orbital period
113.67 mins
BSTAR
0.000089747
Loading maneuver chart data...
Computing Atmospheric mass density...
Loading historical data...
Loading historical data...
Loading historical data...
Loading historical data...
Loading historical data...
Loading historical data...
Loading historical data...

Documentation

Showing up to 5 results
|